Clark Regional (JVY)

 

Airport Diagram
No Airport Diagram Available
Current Weather/Forecast (VFR Conditions)
METAR KJVY 071255Z AUTO 00000KT 10SM CLR 10/06 A3009 RMK AO2 T00960055 TSNO
TAF

Airport Information

All Charts
General
Chart Name View
TAKEOFF MINIMUMS
ALTERNATE MINIMUMS

Arrivals
Chart Name Download
CHERI FOUR
DARBY SEVEN
REDSTONE SIX

Approaches
Chart Name Download
ILS OR LOC RWY 18
RNAV (GPS) RWY 18
NDB RWY 18


Airport Statistics
Departures Arrivals Local
All Collected Stats since June 2016: 36 25 5
2021 Stats: 6 6 3
May Stats: 1 1 0

Inbound Traffic (Arrivals) - 0

No inbound traffic.


Outbound Traffic (Departures) - 0

No outbound traffic.


Local Traffic (Pattern) - 0

No local traffic.